[[{"header":{"parameterUnit":"m.s-1","parameterCategory":1,"la1":30.2991,"la2":30.254,"lo1":-89.0895,"lo2":-89.0444,"dy":0.0017,"dx":0.0017,"nx":28,"ny":28,"refTime":"2024-12-23T03:00:00:Z","depth":0,"parameterNumber":2,"parameterNumberName":"U-component_of_WINDS"},"data":[0,0,0,0,0,0,0,0,0,0,0,0,0,0,0,0,0,0,0,0,0,0,0,0,0,0,0,0,0,0,0,0,0,0,0,0,0,0,0,0,0,0,0,0,0,0,0,0,0,0,0,0,0,0,0,0,0,0,-3.3583,-3.3583,0,-3.3552,-3.3552,-3.3551,-3.3378,-3.3374,-3.337,-3.3366,-3.3339,-3.3342,-3.3345,0,0,0,0,0,0,0,0,0,0,0,0,0,-3.3501,-3.3504,-3.3584,-3.3583,-3.3583,-3.3552,-3.3552,-3.3551,-3.3379,-3.3374,-3.3369,-3.3364,-3.3338,-3.3342,-3.3346,0,0,0,0,0,0,0,0,0,0,0,0,0,-3.351,-3.3505,-3.3584,-3.3493,-3.3484,-3.3552,-3.3552,-3.3551,-3.338,-3.3374,-3.3368,-3.3362,-3.3337,-3.3342,-3.3346,-3.35,0,0,-3.3361,-3.3363,0,0,0,0,0,0,0,0,-3.351,-3.3514,-3.3507,-3.3499,-3.349,-3.3462,-3.3512,-3.3534,-3.3382,-3.342,-3.3366,-3.3359,-3.3386,-3.3386,-3.3394,-3.3499,-3.3498,-3.3361,-3.3364,-3.3366,-3.3367,0,0,0,0,0,0,0,-3.351,-3.3514,-3.3571,-3.3507,-3.3497,-3.3456,-3.3451,-3.3516,-3.3438,-3.3416,-3.3403,-3.3402,-3.338,-3.339,-3.3392,-3.3497,-3.3361,-3.3365,-3.3368,-3.337,-3.3731,-3.3737,0,0,0,0,0,0,-3.3521,-3.3515,-3.3572,-3.357,-3.3485,-3.3463,-3.3456,-3.3478,-3.3437,-3.3425,-3.3407,-3.3394,-3.3385,-3.3387,-3.3391,-3.357,-3.3366,-3.337,-3.3373,-3.3724,-3.3732,-3.3739,0,0,0,0,0,0,-3.352,-3.3528,-3.3573,-3.3539,-3.3542,-3.3471,-3.3496,-3.348,-3.349,-3.343,-3.3416,-3.3431,-3.338,-3.3384,-3.3475,-3.3567,-3.3373,-3.3377,-3.3716,-3.3727,-3.3736,-3.393,0,0,0,0,0,0,-3.3518,-3.3528,-3.3584,-3.3541,-3.3544,-3.3657,-3.3502,-3.3484,-3.3498,-3.348,-3.3449,-3.3438,-3.3375,-3.3468,-3.3479,-3.357,-3.3381,-3.3708,-3.3721,-3.3733,-3.3915,-3.3945,-3.3971,0,0,0,0,0,-3.3516,-3.3641,-3.3588,-3.3596,-3.3612,-3.3662,-3.3664,-3.3588,-3.3506,-3.3563,-3.3525,-3.3439,-3.3555,-3.3479,-3.349,-3.3583,-3.3701,-3.3717,-3.3732,-3.3902,-3.3939,-3.3971,0,0,0,0,0,0,-3.3697,-3.3633,-3.3574,-3.3688,-3.3682,-3.3633,-3.3702,-3.3629,-3.3647,-3.363,-3.3536,-3.3531,-3.3637,-3.3618,-3.3535,-3.3732,-3.3614,-3.3632,-3.374,-3.3774,-3.3802,-3.3805,-3.3385,0,0,0,0,0,-3.375,-3.3794,-3.3736,-3.3843,-3.3843,-3.3774,-3.3792,-3.3734,-3.3725,-3.3722,-3.369,-3.3686,-3.3721,-3.3746,-3.3775,-3.3911,-3.3904,-3.3981,-3.4009,-3.4033,-3.405,-3.4124,-3.4158,-3.3789,-3.3789,-3.3789,0,0,-3.3861,-3.3831,-3.3865,-3.3879,-3.3867,-3.3917,-3.3772,-3.383,-3.3867,-3.3731,-3.3814,-3.3792,-3.3781,-3.3896,-3.3945,-3.3884,-3.415,-3.4052,-3.4071,-3.4076,-3.4143,-3.4178,-3.4209,-3.38,-3.3798,-3.3796,0,0,-3.4088,-3.4069,-3.4156,-3.4148,-3.4132,-3.4085,-3.4107,-3.4069,-3.4049,-3.4131,-3.403,-3.4074,-3.4136,-3.4134,-3.4141,-3.437,-3.4293,-3.4383,-3.453,-3.4603,-3.4632,-3.4658,-3.4742,-3.4773,-3.44,-3.44,-3.44,0,-3.4227,-3.4296,-3.4211,-3.4277,-3.4287,-3.4165,-3.4255,-3.4251,-3.4247,-3.4258,-3.419,-3.4267,-3.4251,-3.4365,-3.4421,-3.443,-3.4454,-3.4386,-3.4635,-3.4659,-3.4682,-3.4761,-3.4793,-3.4411,-3.441,-3.4409,-3.4408,0,-3.4471,-3.4521,-3.4594,-3.4591,-3.461,-3.4688,-3.4617,-3.4647,-3.4588,-3.455,-3.4638,-3.4615,-3.4638,-3.4661,-3.4604,-3.4768,-3.4731,-3.4651,-3.453,-3.473,-3.4803,-3.4833,-3.4427,-3.4423,-3.442,-3.4417,0,0,-3.481,-3.4761,-3.4789,-3.4788,-3.4762,-3.48,-3.4874,-3.4896,-3.4925,-3.4926,-3.4988,-3.5045,-3.497,-3.4979,-3.4921,-3.4985,-3.5172,-3.4896,-3.4895,-3.495,-3.5355,-3.5417,-3.5453,-3.512,-3.5125,-3.513,-3.5356,0,-3.5028,-3.5149,-3.5076,-3.521,-3.5257,-3.5143,-3.5207,-3.5201,-3.5168,-3.5205,-3.5169,-3.5212,-3.5109,-3.5114,-3.5172,-3.5137,-3.5252,-3.5119,-3.5179,-3.5182,-3.5187,-3.5491,-3.5556,-3.5771,-3.5384,-3.5389,-3.5392,0,-3.5299,-3.5312,-3.5451,-3.5418,-3.5435,-3.5495,-3.5511,-3.5546,-3.5538,-3.5509,-3.552,-3.5448,-3.5521,-3.5402,-3.5503,-3.5414,-3.5435,-3.5422,-3.5429,-3.5432,-3.5301,-3.5505,-3.5837,-3.5871,-3.5436,-3.5433,-3.543,0,-3.5536,-3.5588,-3.5678,-3.568,-3.5644,-3.5689,-3.5677,-3.5661,-3.5681,-3.5695,-3.5707,-3.5731,-3.5745,-3.5766,-3.5704,-3.5622,-3.5815,-3.5689,-3.5796,-3.5798,-3.5842,-3.5841,-3.6185,-3.5854,-3.5853,-3.5852,-3.5852,0,-3.5788,-3.5878,-3.5784,-3.5839,-3.5938,-3.5854,-3.5954,-3.593,-3.5918,-3.5969,-3.5872,-3.5923,-3.5836,-3.5879,-3.5831,-3.5924,-3.593,-3.5912,-3.5898,-3.5921,-3.5924,-3.5934,-3.5918,-3.5861,-3.5859,-3.5857,-3.5856,0,-3.6069,-3.6009,-3.61,-3.6059,-3.6051,-3.6126,-3.6092,-3.6144,-3.6105,-3.6171,-3.6182,-3.6122,-3.6167,-3.6107,-3.6146,-3.6114,-3.6242,-3.6205,-3.6245,-3.6235,-3.6346,-3.6338,-3.671,-3.6756,-3.6394,-3.6397,-3.64,0,-3.6235,-3.6301,-3.6268,-3.6295,-3.6288,-3.6332,-3.6351,-3.6273,-3.6297,-3.6294,-3.6347,-3.6384,-3.6409,-3.6488,-3.645,-3.6481,-3.6445,-3.6573,-3.6449,-3.6471,-3.645,-3.6447,-3.6455,-3.6599,-3.6604,-3.6607,-3.661,0,-3.6536,-3.6504,-3.6534,-3.6556,-3.6581,-3.6595,-3.6601,-3.6629,-3.6547,-3.658,-3.6625,-3.6645,-3.6686,-3.6726,-3.6747,-3.6736,-3.6662,-3.665,-3.6676,-3.6701,-3.6723,-3.6715,-3.6317,-3.6642,-3.6638,-3.6636,-3.6634,-3.6633,-3.6766,-3.682,-3.6806,-3.6845,-3.6841,-3.685,-3.6897,-3.6865,-3.69,-3.6927,-3.6879,-3.6937,-3.693,-3.695,-3.6949,-3.6995,-3.694,-3.6978,-3.6988,-3.6999,-3.7017,-3.6715,-3.6998,-3.6997,-3.6996,-3.6996,-3.6995,0,-3.7064,-3.705,-3.7086,-3.7098,-3.7129,-3.7054,-3.7058,-3.709,-3.7142,-3.7141,-3.7168,-3.7222,-3.7261,-3.7226,-3.7258,-3.7302,-3.7269,-3.7314,-3.7311,-3.731,-3.7063,-3.7038,-3.734,-3.734,-3.734,-3.734,-3.734,-3.734,-3.7223,-3.7312,-3.728,-3.7368,-3.7353,-3.7408,-3.7418,-3.7427,-3.7426,-3.749,-3.7521,-3.7498,-3.7484,-3.7515,-3.7549,-3.7538,-3.7555,-3.7613,-3.7591,-3.7361,-3.7327,-3.7295,-3.7271,-3.7617,-3.7617,-3.7833,-3.7835,-3.7837]},{"header":{"parameterUnit":"m.s-1","parameterCategory":1,"la1":30.2991,"la2":30.254,"lo1":-89.0895,"lo2":-89.0444,"dy":0.0017,"dx":0.0017,"nx":28,"ny":28,"refTime":"2024-12-23T03:00:00:Z","depth":0,"parameterNumber":3,"parameterNumberName":"V-component_of_WINDS"},"data":[0,0,0,0,0,0,0,0,0,0,0,0,0,0,0,0,0,0,0,0,0,0,0,0,0,0,0,0,0,0,0,0,0,0,0,0,0,0,0,0,0,0,0,0,0,0,0,0,0,0,0,0,0,0,0,0,0,0,0.3019,0.3018,0,0.2949,0.2948,0.2947,0.2937,0.2938,0.2938,0.2939,0.2862,0.2859,0.2856,0,0,0,0,0,0,0,0,0,0,0,0,0,0.3141,0.3139,0.3019,0.3018,0.3018,0.2949,0.2948,0.2947,0.2937,0.2938,0.2938,0.2939,0.2862,0.2859,0.2856,0,0,0,0,0,0,0,0,0,0,0,0,0,0.3081,0.3138,0.3019,0.3004,0.3002,0.2949,0.2948,0.2947,0.2937,0.2938,0.2939,0.2939,0.2863,0.286,0.2856,0.2811,0,0,0.2843,0.2842,0,0,0,0,0,0,0,0,0.3084,0.3076,0.3007,0.3005,0.3003,0.2953,0.2963,0.2901,0.2936,0.2961,0.2939,0.294,0.2891,0.2885,0.2869,0.2808,0.2804,0.2843,0.2841,0.2839,0.2838,0,0,0,0,0,0,0,0.3088,0.3079,0.2991,0.3006,0.3004,0.3,0.2992,0.2951,0.2921,0.2959,0.2958,0.295,0.289,0.2873,0.2867,0.2803,0.2843,0.284,0.2837,0.2836,0.2702,0.2701,0,0,0,0,0,0,0.3096,0.3083,0.2993,0.2989,0.3047,0.2997,0.2988,0.2968,0.2922,0.2916,0.295,0.295,0.2879,0.2872,0.2864,0.2809,0.2839,0.2835,0.2833,0.2703,0.2701,0.27,0,0,0,0,0,0,0.3099,0.3088,0.2996,0.3036,0.3024,0.2994,0.297,0.2966,0.2949,0.2915,0.2909,0.2938,0.288,0.287,0.2825,0.2806,0.2833,0.283,0.2704,0.2702,0.2701,0.2697,0,0,0,0,0,0,0.3102,0.3089,0.3073,0.3036,0.3022,0.2959,0.2969,0.2964,0.2943,0.2943,0.2902,0.2896,0.288,0.2831,0.2821,0.2801,0.2827,0.2706,0.2703,0.2701,0.2699,0.2696,0.2693,0,0,0,0,0,0.3107,0.3073,0.3072,0.3061,0.3001,0.2958,0.295,0.2933,0.2941,0.2924,0.2902,0.2898,0.281,0.2826,0.2815,0.2793,0.2707,0.2704,0.2701,0.27,0.2696,0.2693,0,0,0,0,0,0,0.3107,0.3068,0.3066,0.302,0.2993,0.2956,0.2934,0.2929,0.2897,0.2899,0.2878,0.2868,0.2824,0.2805,0.2823,0.2748,0.2759,0.2754,0.2762,0.2758,0.2755,0.276,0.2823,0,0,0,0,0,0.3102,0.3072,0.3039,0.3002,0.2989,0.2964,0.2944,0.2934,0.2904,0.2892,0.2866,0.2836,0.2802,0.2779,0.2746,0.2697,0.2687,0.2677,0.2674,0.2672,0.2667,0.2639,0.2634,0.2692,0.2692,0.2692,0,0,0.309,0.3066,0.3048,0.3001,0.2979,0.2947,0.2954,0.2919,0.2895,0.2886,0.2842,0.2823,0.2787,0.274,0.2718,0.2722,0.2649,0.2668,0.2667,0.2663,0.2636,0.263,0.2625,0.269,0.269,0.269,0,0,0.3053,0.3032,0.2999,0.2977,0.2943,0.2928,0.292,0.2885,0.2872,0.2828,0.2821,0.2791,0.2732,0.2708,0.2687,0.2643,0.2637,0.2633,0.2616,0.2589,0.2585,0.258,0.2563,0.2557,0.2629,0.2629,0.2629,0,0.3042,0.2995,0.2981,0.2948,0.2927,0.2921,0.2886,0.2864,0.2821,0.2806,0.2813,0.274,0.2716,0.2663,0.2652,0.2637,0.2625,0.2636,0.2587,0.2582,0.2578,0.2561,0.2555,0.2628,0.2628,0.2628,0.2628,0,0.2983,0.2951,0.2928,0.2888,0.2865,0.2831,0.2811,0.2789,0.2782,0.2765,0.272,0.2692,0.2652,0.264,0.2631,0.2585,0.2589,0.2591,0.2601,0.2572,0.2556,0.255,0.2627,0.2628,0.2628,0.2628,0,0,0.2941,0.2896,0.2888,0.287,0.2834,0.2808,0.2773,0.2737,0.2718,0.2689,0.2659,0.2611,0.2613,0.2591,0.2579,0.2556,0.2522,0.2562,0.256,0.2553,0.2468,0.2464,0.2457,0.2519,0.2518,0.2517,0.247,0,0.2898,0.2837,0.2825,0.2772,0.2741,0.2736,0.2706,0.268,0.2664,0.2635,0.2616,0.2582,0.2589,0.2575,0.2552,0.2531,0.2504,0.2534,0.2488,0.2487,0.2495,0.2449,0.2445,0.2402,0.2464,0.2463,0.2462,0,0.2838,0.281,0.2755,0.2724,0.271,0.2684,0.265,0.2623,0.2593,0.2583,0.2559,0.2551,0.2513,0.2528,0.2475,0.2497,0.2477,0.2464,0.2462,0.2455,0.2471,0.2438,0.2388,0.2381,0.2452,0.2453,0.2454,0,0.2811,0.2759,0.2719,0.2705,0.2668,0.2649,0.2632,0.2604,0.2583,0.2553,0.2539,0.2505,0.2486,0.2459,0.2441,0.2453,0.239,0.2403,0.2378,0.2379,0.2362,0.2363,0.2306,0.2355,0.2355,0.2355,0.2355,0,0.2762,0.2728,0.2707,0.2682,0.2643,0.263,0.2592,0.2575,0.255,0.2521,0.2515,0.2487,0.2467,0.2437,0.2423,0.2381,0.2373,0.2362,0.2358,0.2361,0.2362,0.2346,0.2347,0.2353,0.2353,0.2354,0.2354,0,0.2723,0.2708,0.2664,0.2634,0.2626,0.2598,0.2572,0.2547,0.2532,0.2496,0.2486,0.2462,0.2426,0.2407,0.2361,0.2352,0.2304,0.2303,0.2315,0.2312,0.2288,0.229,0.2217,0.2206,0.2264,0.2263,0.2263,0,0.2692,0.2666,0.2634,0.2615,0.2599,0.2568,0.2548,0.2534,0.2512,0.2478,0.2457,0.2421,0.2391,0.2334,0.2311,0.2276,0.2273,0.225,0.2267,0.2271,0.2269,0.227,0.2267,0.2245,0.2245,0.2244,0.2244,0,0.2637,0.2632,0.2603,0.2572,0.2548,0.2523,0.2497,0.2482,0.2464,0.244,0.2404,0.2381,0.2336,0.23,0.2264,0.2245,0.224,0.2239,0.2231,0.2232,0.2239,0.2233,0.2303,0.224,0.224,0.2241,0.2241,0.2241,0.2599,0.2576,0.255,0.2519,0.2499,0.2476,0.2451,0.2435,0.2405,0.2368,0.2362,0.2324,0.2295,0.2247,0.2228,0.2196,0.2201,0.219,0.2186,0.2183,0.2181,0.2247,0.219,0.219,0.219,0.219,0.219,0,0.2543,0.2527,0.2498,0.2464,0.2439,0.2441,0.2414,0.2392,0.2359,0.2334,0.2306,0.2264,0.223,0.2206,0.2171,0.215,0.2147,0.2141,0.2141,0.2136,0.218,0.219,0.2144,0.2144,0.2144,0.2144,0.2144,0.2144,0.251,0.247,0.2462,0.2412,0.2396,0.236,0.2344,0.2322,0.2302,0.2257,0.2229,0.2215,0.219,0.2153,0.2121,0.2115,0.2101,0.2095,0.2088,0.2129,0.2133,0.2138,0.2146,0.2092,0.2092,0.2046,0.2046,0.2045]}]]